Location: �mondeville
(49.4591°N, 1.3431°W)
Time: 01:56:40
(UTC+00:00)

H-2A R/B - Pass Details

Date: 22 October 2019
Orbit: 530 x 653 km, 98.3° (Epoch: 13 November)

Event Time Altitude Azimuth Distance (km) Brightness Sun altitude
Rises 04:38:20 0° 12° (NNE) 2,816 6.2 -19.9°
Reaches altitude 10° 04:40:28 10° 10° (N) 1,931 5.3 -19.6°
Maximum altitude 04:44:38 68° 288° (WNW) 659 2.4 -18.9°
Enters shadow 04:47:29 21° 209° (SSW) 1,413 4.1 -18.4°
